Pasco, WA
on Sunday, November 25, 2012

Sunday
Previous Day Next Day
Daily Summary
 ActualAverageRecord
Temperature
Mean Temperature °F / °C 38°F / 3°C  
Max Temperature 47°F / 8°C 45°F / 7°C 68°F / 20°C (1962)
Min Temperature 25°F / -4°C 31°F / -1°C 3°F / -16°C (1985)
Degree Days
Heating Degree Days 29 27  
Month to date heating degree days 499 570  
Since 1 July heating degree days 943 1088  
Cooling Degree Days 0 0  
Month to date cooling degree days 0 0  
Year to date cooling degree days 788 710  
Moisture
Dew Point 30°F / -1°C   
Average Humidity 77    
Maximum Humidity 100    
Minimum Humidity 53    
Precipitation
Precipitation T in / T cm in / cm 0.62 in / 1.57 cm (1977)
Month to date precipitation 1.03  
Year to date precipitation 8.49  
Snow
Snow 0.00 in / 0.00 cm in / cm in / cm ()
Snow Depth 0.00 in / 0.00 cm   
Wind
Wind Speed 1 mph / 2 km/h   
Max Wind Speed 8 mph / 13 km/h   
Max Gust Speed 8 mph / 13 km/h   
Visibility 6 miles / 9 kilometers   
Events Fog , Snow   

Key: T is trace of precipitation, MM is missing value
Source: NWS Daily Summary
Time(PST)TemperatureDew PointHumidity Pressure Visibility Wind DirectionWind SpeedGust SpeedPrecipitationEvents Conditions
12:53 AM 32.0°F / 0.0°C 30.9°F / -0.6°C 96% 30.19 in / 1022.4 hPa 7.0 miles / 11.3 kilometers Calm Calm - N/A   Clear
1:53 AM 30.9°F / -0.6°C 30.0°F / -1.1°C 96% 30.21 in / 1022.9 hPa 9.0 miles / 14.5 kilometers NNW 4.6 mph / 7.4 km/h - N/A   Clear
2:53 AM 28.9°F / -1.7°C 27.0°F / -2.8°C 92% 30.22 in / 1023.3 hPa 10.0 miles / 16.1 kilometers Calm Calm - N/A   Clear
3:53 AM 28.0°F / -2.2°C 27.0°F / -2.8°C 96% 30.24 in / 1023.9 hPa 10.0 miles / 16.1 kilometers NW 3.5 mph / 5.6 km/h - N/A   Clear
4:53 AM 27.0°F / -2.8°C 26.1°F / -3.3°C 96% 30.25 in / 1024.3 hPa 10.0 miles / 16.1 kilometers Calm Calm - N/A   Clear
5:53 AM 27.0°F / -2.8°C 24.1°F / -4.4°C 89% 30.26 in / 1024.7 hPa 10.0 miles / 16.1 kilometers Calm Calm - N/A   Clear
6:53 AM 26.1°F / -3.3°C 23.0°F / -5.0°C 88% 30.27 in / 1025.1 hPa 10.0 miles / 16.1 kilometers Calm Calm - N/A   Clear
7:01 AM 26.6°F / -3.0°C 24.8°F / -4.0°C 93% 30.27 in / 1024.9 hPa 10.0 miles / 16.1 kilometers Calm Calm - N/A   Partly Cloudy
7:27 AM 26.6°F / -3.0°C 24.8°F / -4.0°C 93% 30.27 in / 1024.9 hPa 5.0 miles / 8.0 kilometers Calm Calm - N/A   Mostly Cloudy
7:44 AM 26.6°F / -3.0°C 26.6°F / -3.0°C 100% 30.28 in / 1025.3 hPa 0.2 miles / 0.4 kilometers Calm Calm - N/A Fog Light Freezing Fog
7:53 AM 28.0°F / -2.2°C 27.0°F / -2.8°C 96% 30.30 in / 1025.9 hPa 0.2 miles / 0.4 kilometers Calm Calm - N/A Fog Light Freezing Fog
8:18 AM 30.2°F / -1.0°C 28.4°F / -2.0°C 93% 30.29 in / 1025.6 hPa 0.2 miles / 0.4 kilometers Calm Calm - N/A Fog Light Freezing Fog
8:27 AM 30.2°F / -1.0°C 30.2°F / -1.0°C 100% 30.30 in / 1026.0 hPa 0.2 miles / 0.4 kilometers Calm Calm - N/A Fog Light Freezing Fog
8:35 AM 30.2°F / -1.0°C 30.2°F / -1.0°C 100% 30.30 in / 1026.0 hPa 0.2 miles / 0.4 kilometers Calm Calm - N/A Fog Light Freezing Fog
8:53 AM 30.9°F / -0.6°C 30.0°F / -1.1°C 96% 30.32 in / 1026.5 hPa 0.2 miles / 0.4 kilometers Calm Calm - N/A Fog Light Freezing Fog
9:06 AM 30.2°F / -1.0°C 30.2°F / -1.0°C 100% 30.31 in / 1026.3 hPa 1.8 miles / 2.8 kilometers Calm Calm - N/A   Overcast
9:17 AM 30.2°F / -1.0°C 30.2°F / -1.0°C 100% 30.31 in / 1026.3 hPa 0.5 miles / 0.8 kilometers Calm Calm - N/A Fog Light Freezing Fog
9:38 AM 32.0°F / 0.0°C 32.0°F / 0.0°C 100% 30.31 in / 1026.3 hPa 0.2 miles / 0.4 kilometers Calm Calm - N/A Fog Fog
9:53 AM 32.0°F / 0.0°C 32.0°F / 0.0°C 100% 30.33 in / 1027.0 hPa 0.2 miles / 0.4 kilometers Calm Calm - N/A Fog Fog
10:27 AM 33.8°F / 1.0°C 33.8°F / 1.0°C 100% 30.32 in / 1026.6 hPa 0.2 miles / 0.4 kilometers Calm Calm - 0.00 in / 0.0 cm Fog , Snow Light Snow
10:53 AM 34.0°F / 1.1°C 34.0°F / 1.1°C 100% 30.33 in / 1027.1 hPa 0.2 miles / 0.4 kilometers Calm Calm - 0.00 in / 0.0 cm Fog Fog
11:35 AM 35.6°F / 2.0°C 35.6°F / 2.0°C 100% 30.32 in / 1026.6 hPa 0.5 miles / 0.8 kilometers Calm Calm - N/A Fog Fog
11:53 AM 35.1°F / 1.7°C 35.1°F / 1.7°C 100% 30.34 in / 1027.3 hPa 0.8 miles / 1.2 kilometers Calm Calm - N/A   Mist
12:34 PM 37.4°F / 3.0°C 35.6°F / 2.0°C 93% 30.32 in / 1026.6 hPa 3.0 miles / 4.8 kilometers Calm Calm - N/A   Mostly Cloudy
12:51 PM 39.2°F / 4.0°C 37.4°F / 3.0°C 93% 30.32 in / 1026.6 hPa 10.0 miles / 16.1 kilometers Calm Calm - N/A   Clear
12:53 PM 37.9°F / 3.3°C 37.0°F / 2.8°C 97% 30.33 in / 1026.9 hPa 10.0 miles / 16.1 kilometers Calm Calm - N/A   Clear
1:53 PM 44.1°F / 6.7°C 35.1°F / 1.7°C 71% 30.33 in / 1027.0 hPa 10.0 miles / 16.1 kilometers Calm Calm - N/A   Clear
2:53 PM 46.0°F / 7.8°C 30.9°F / -0.6°C 56% 30.33 in / 1026.9 hPa 10.0 miles / 16.1 kilometers NNE 4.6 mph / 7.4 km/h - N/A   Clear
3:53 PM 42.1°F / 5.6°C 32.0°F / 0.0°C 67% 30.33 in / 1027.0 hPa 10.0 miles / 16.1 kilometers North 4.6 mph / 7.4 km/h - N/A   Clear
4:53 PM 36.0°F / 2.2°C 32.0°F / 0.0°C 86% 30.34 in / 1027.3 hPa 10.0 miles / 16.1 kilometers Calm Calm - N/A   Clear
5:53 PM 30.9°F / -0.6°C 28.9°F / -1.7°C 92% 30.35 in / 1027.6 hPa 10.0 miles / 16.1 kilometers Calm Calm - N/A   Clear
6:53 PM 30.9°F / -0.6°C 28.9°F / -1.7°C 92% 30.36 in / 1027.9 hPa 10.0 miles / 16.1 kilometers Calm Calm - N/A   Clear
7:53 PM 30.0°F / -1.1°C 28.0°F / -2.2°C 92% 30.36 in / 1028.1 hPa 10.0 miles / 16.1 kilometers Calm Calm - N/A   Clear
8:53 PM 28.0°F / -2.2°C 26.1°F / -3.3°C 92% 30.37 in / 1028.3 hPa 10.0 miles / 16.1 kilometers NNW 3.5 mph / 5.6 km/h - N/A   Clear
9:53 PM 28.0°F / -2.2°C 27.0°F / -2.8°C 96% 30.37 in / 1028.3 hPa 10.0 miles / 16.1 kilometers North 4.6 mph / 7.4 km/h - N/A   Clear
10:53 PM 27.0°F / -2.8°C 25.0°F / -3.9°C 92% 30.37 in / 1028.4 hPa 10.0 miles / 16.1 kilometers Calm Calm - N/A   Clear
11:53 PM 27.0°F / -2.8°C 24.1°F / -4.4°C 89% 30.38 in / 1028.5 hPa 10.0 miles / 16.1 kilometers Calm Calm - N/A   Clear
Moon Phase
Nov. 25 Nov. 28 Dec. 06 Dec. 13 Dec. 20
Sunrise:07:12 AM (PST) Moon Rise:02:40 PM (PST)
Sunset:04:14 PM (PST) Moon Set:04:24 AM (PST)

Copyright © 2014 The Weather Underground, Inc.